Location: Bonny Doon Airfield
(37.0704°N, 122.1252°W)
Time: 23:20:11
(UTC-08:00)

Vanguard 1 Rocket - Pass Details

Date: 25 October 2017
Orbit: 655 x 4222 km, 34.3° (Epoch: 22 November)

Event Time Altitude Azimuth Distance (km) Brightness Sun altitude
Rises 12:21:07 0° 271° (W) 3,157 10.1 40.0°
Reaches altitude 10° 12:24:13 10° 251° (WSW) 2,085 9.5 40.1°
Maximum altitude 12:27:17 18° 207° (SSW) 1,590 9.7 40.2°
Drops below altitude 10° 12:30:26 10° 163° (SSE) 2,145 10.5 40.3°
Sets 12:33:42 0° 144° (SE) 3,291 11.0 40.4°
